Simultaneous Nadir Overpasses (SNOs) Predictions

Prediction of SNOs between FY3D and LANDSAT-8 Satellite Orbit:

Table of predicted SNOs for the next 14.0 days since TLE Epoch: 6/6/2020
Index Date (FY3D) Time (FY3D) Lat,Lon (FY3D) SZA (FY3D ) Date (LANDSAT-8) Time (LANDSAT-8) Lat,Lon (LANDSAT-8) SZA (LANDSAT-8 ) Distance(km) Time Diff (sec)
1 06/08/2020 01:54:06 70.57, 148.35 47.62 06/08/2020 01:55:00 70.59, 148.31 47.64 2.81 54
2 06/08/2020 02:44:47 -70.46, -44.16 132.49 06/08/2020 02:44:30 -70.48, -44.23 132.48 2.78 17
3 06/08/2020 03:35:17 69.61, 124.45 46.63 06/08/2020 03:34:10 69.66, 122.26 46.74 84.62 67
4 06/10/2020 18:10:29 70.60, -95.79 47.44 06/10/2020 18:11:31 70.58, -95.82 47.42 2.02 62
5 06/10/2020 19:01:10 -70.49, 71.71 132.68 06/10/2020 19:01:01 -70.47, 71.64 132.69 2.92 9
6 06/10/2020 19:51:45 69.91,-120.08 46.73 06/10/2020 19:50:35 69.99,-121.41 46.84 51.46 70
7 06/13/2020 10:26:53 70.63, 20.07 47.32 06/13/2020 10:28:03 70.60, 20.07 47.28 3.40 70
8 06/13/2020 11:17:34 -70.51,-172.42 132.81 06/13/2020 11:17:33 -70.49,-172.46 132.83 2.73 1
9 06/13/2020 12:08:14 70.21, -4.62 46.88 06/13/2020 12:07:02 70.28, -5.13 46.97 20.55 72
10 06/16/2020 02:43:21 70.87, 135.58 47.46 06/16/2020 02:44:32 70.80, 136.24 47.36 25.32 71
11 06/16/2020 03:33:58 -70.54, -56.55 132.89 06/16/2020 03:34:05 -70.53, -56.53 132.90 1.15 7
12 06/16/2020 04:24:41 70.40, 110.99 46.96 06/16/2020 04:23:32 70.42, 110.96 47.00 3.33 69
13 06/18/2020 18:59:51 71.22,-109.09 47.76 06/18/2020 19:00:59 71.12,-107.38 47.62 62.38 68
14 06/18/2020 19:50:21 -70.51, 59.40 132.98 06/18/2020 19:50:38 -70.53, 59.34 132.96 3.15 17
15 06/18/2020 20:41:05 70.43,-133.16 46.94 06/18/2020 20:40:05 70.42,-133.17 46.94 0.90 60




NCC Satellite Simultaneous Nadir Overpasses (SNOs) Prediction Service
